Time,TemperatureF,DewpointF,PressureIn,WindDirection,WindDirectionDegrees,WindSpeedMPH,WindSpeedGustMPH,Humidity,HourlyPrecipIn,Conditions,Clouds,dailyrainin,SoftwareType,DateUTC
2013-10-15 00:05:00,51.7,50.9,30.23,NW,306,2.0,3.0,97,0.00,,,0.00,Wunderground v.1.15,2013-10-15 04:05:00,
2013-10-15 00:10:00,51.6,50.8,30.23,WNW,290,3.0,4.0,97,0.00,,,0.00,Wunderground v.1.15,2013-10-15 04:10:00,
2013-10-15 00:15:00,51.7,50.9,30.23,WNW,295,3.0,4.0,97,0.00,,,0.00,Wunderground v.1.15,2013-10-15 04:15:00,
2013-10-15 00:25:00,51.9,51.1,30.23,WNW,294,4.0,5.0,97,0.00,,,0.00,Wunderground v.1.15,2013-10-15 04:25:00,
2013-10-15 00:30:00,51.9,51.1,30.23,WNW,288,3.0,5.0,97,0.00,,,0.00,Wunderground v.1.15,2013-10-15 04:30:00,
2013-10-15 00:35:00,51.9,51.1,30.23,WNW,301,3.0,5.0,97,0.00,,,0.00,Wunderground v.1.15,2013-10-15 04:35:00,
2013-10-15 00:40:00,51.9,51.1,30.23,WNW,301,3.0,3.0,97,0.00,,,0.00,Wunderground v.1.15,2013-10-15 04:40:00,
2013-10-15 00:45:00,51.9,51.1,30.23,WNW,302,3.0,3.0,97,0.00,,,0.00,Wunderground v.1.15,2013-10-15 04:45:00,
2013-10-15 00:50:00,51.7,50.9,30.23,WNW,302,2.0,2.0,97,0.00,,,0.00,Wunderground v.1.15,2013-10-15 04:50:00,
2013-10-15 00:55:00,51.6,50.8,30.23,NW,315,2.0,2.0,97,0.00,,,0.00,Wunderground v.1.15,2013-10-15 04:55:00,
2013-10-15 01:00:00,51.7,50.9,30.24,NW,308,3.0,5.0,97,0.00,,,0.00,Wunderground v.1.15,2013-10-15 05:00:00,
2013-10-15 01:05:00,51.7,50.9,30.23,NW,309,4.0,5.0,97,0.00,,,0.00,Wunderground v.1.15,2013-10-15 05:05:00,
2013-10-15 01:10:00,51.8,51.0,30.24,NW,304,4.0,4.0,97,0.00,,,0.00,Wunderground v.1.15,2013-10-15 05:10:00,
2013-10-15 01:15:00,51.8,51.0,30.23,NW,307,5.0,5.0,97,0.00,,,0.00,Wunderground v.1.15,2013-10-15 05:15:00,
2013-10-15 01:20:00,51.9,51.1,30.23,NW,305,5.0,5.0,97,0.00,,,0.00,Wunderground v.1.15,2013-10-15 05:20:00,
2013-10-15 01:25:00,51.9,51.1,30.24,NW,304,4.0,7.0,97,0.00,,,0.00,Wunderground v.1.15,2013-10-15 05:25:00,
2013-10-15 01:30:00,52.0,51.2,30.24,NW,317,4.0,4.0,97,0.00,,,0.00,Wunderground v.1.15,2013-10-15 05:30:00,
2013-10-15 01:35:00,52.1,51.3,30.23,NW,313,4.0,4.0,97,0.00,,,0.00,Wunderground v.1.15,2013-10-15 05:35:00,
2013-10-15 01:40:00,52.1,51.0,30.24,NW,312,4.0,4.0,96,0.00,,,0.00,Wunderground v.1.15,2013-10-15 05:40:00,
2013-10-15 01:45:00,51.9,50.8,30.25,NNW,331,4.0,4.0,96,0.00,,,0.00,Wunderground v.1.15,2013-10-15 05:45:00,
2013-10-15 01:50:00,51.5,50.4,30.25,NNW,331,4.0,4.0,96,0.00,,,0.00,Wunderground v.1.15,2013-10-15 05:50:00,
2013-10-15 01:55:00,51.2,49.8,30.25,WNW,302,3.0,4.0,95,0.00,,,0.00,Wunderground v.1.15,2013-10-15 05:55:00,
2013-10-15 02:00:00,50.9,49.5,30.25,WNW,302,2.0,2.0,95,0.00,,,0.00,Wunderground v.1.15,2013-10-15 06:00:00,
2013-10-15 02:05:00,50.8,49.7,30.24,WNW,291,2.0,4.0,96,0.00,,,0.00,Wunderground v.1.15,2013-10-15 06:05:00,
2013-10-15 02:10:00,51.0,49.9,30.24,WNW,301,3.0,6.0,96,0.00,,,0.00,Wunderground v.1.15,2013-10-15 06:10:00,
2013-10-15 02:15:00,51.0,49.6,30.24,NW,306,5.0,6.0,95,0.00,,,0.00,Wunderground v.1.15,2013-10-15 06:15:00,
2013-10-15 02:25:00,51.2,49.8,30.24,WNW,286,6.0,6.0,95,0.00,,,0.00,Wunderground v.1.15,2013-10-15 06:25:00,
2013-10-15 02:30:00,51.1,49.4,30.24,WNW,295,4.0,4.0,94,0.00,,,0.00,Wunderground v.1.15,2013-10-15 06:30:00,
2013-10-15 02:40:00,50.8,49.1,30.24,WNW,296,3.0,5.0,94,0.00,,,0.00,Wunderground v.1.15,2013-10-15 06:40:00,
2013-10-15 02:45:00,50.7,49.0,30.24,WNW,296,4.0,5.0,94,0.00,,,0.00,Wunderground v.1.15,2013-10-15 06:45:00,
2013-10-15 02:50:00,50.6,48.9,30.24,NNW,327,3.0,5.0,94,0.00,,,0.00,Wunderground v.1.15,2013-10-15 06:50:00,
2013-10-15 02:55:00,50.5,48.8,30.24,WNW,302,3.0,5.0,94,0.00,,,0.00,Wunderground v.1.15,2013-10-15 06:55:00,
2013-10-15 03:00:00,50.3,48.6,30.24,NW,308,4.0,5.0,94,0.00,,,0.00,Wunderground v.1.15,2013-10-15 07:00:00,
2013-10-15 03:05:00,50.3,48.6,30.25,NW,306,4.0,6.0,94,0.00,,,0.00,Wunderground v.1.15,2013-10-15 07:05:00,
2013-10-15 03:15:00,49.9,48.2,30.25,NW,325,4.0,4.0,94,0.00,,,0.00,Wunderground v.1.15,2013-10-15 07:15:00,
2013-10-15 03:20:00,49.8,48.1,30.25,NW,319,3.0,5.0,94,0.00,,,0.00,Wunderground v.1.15,2013-10-15 07:20:00,
2013-10-15 03:25:00,49.7,48.0,30.25,NW,313,4.0,5.0,94,0.00,,,0.00,Wunderground v.1.15,2013-10-15 07:25:00,
2013-10-15 03:30:00,49.7,48.0,30.25,NW,311,4.0,4.0,94,0.00,,,0.00,Wunderground v.1.15,2013-10-15 07:30:00,
2013-10-15 03:40:00,49.5,47.8,30.25,NW,322,3.0,6.0,94,0.00,,,0.00,Wunderground v.1.15,2013-10-15 07:40:00,
2013-10-15 03:45:00,49.6,47.7,30.26,NNW,345,4.0,6.0,93,0.00,,,0.00,Wunderground v.1.15,2013-10-15 07:45:00,
2013-10-15 03:50:00,49.5,47.6,30.26,NNW,338,4.0,4.0,93,0.00,,,0.00,Wunderground v.1.15,2013-10-15 07:50:00,
2013-10-15 03:55:00,49.4,47.5,30.25,NNW,336,3.0,5.0,93,0.00,,,0.00,Wunderground v.1.15,2013-10-15 07:55:00,
2013-10-15 04:00:00,49.1,47.2,30.26,NNW,333,3.0,3.0,93,0.00,,,0.00,Wunderground v.1.15,2013-10-15 08:00:00,
2013-10-15 04:05:00,48.8,46.9,30.26,NNW,346,3.0,3.0,93,0.00,,,0.00,Wunderground v.1.15,2013-10-15 08:05:00,
2013-10-15 04:10:00,48.7,46.8,30.26,NNW,347,2.0,2.0,93,0.00,,,0.00,Wunderground v.1.15,2013-10-15 08:10:00,
2013-10-15 04:15:00,48.4,46.8,30.26,NNW,347,2.0,3.0,94,0.00,,,0.00,Wunderground v.1.15,2013-10-15 08:15:00,
2013-10-15 04:20:00,48.2,46.6,30.26,NNW,346,2.0,2.0,94,0.00,,,0.00,Wunderground v.1.15,2013-10-15 08:20:00,
2013-10-15 04:25:00,48.1,46.5,30.26,NNW,327,2.0,3.0,94,0.00,,,0.00,Wunderground v.1.15,2013-10-15 08:25:00,
2013-10-15 04:30:00,48.0,46.4,30.26,NW,323,2.0,2.0,94,0.00,,,0.00,Wunderground v.1.15,2013-10-15 08:30:00,
2013-10-15 04:35:00,47.9,46.3,30.26,NW,323,2.0,2.0,94,0.00,,,0.00,Wunderground v.1.15,2013-10-15 08:35:00,
2013-10-15 04:40:00,47.7,46.1,30.26,NNW,341,1.0,3.0,94,0.00,,,0.00,Wunderground v.1.15,2013-10-15 08:40:00,
2013-10-15 04:45:00,47.6,46.0,30.26,NNW,342,2.0,3.0,94,0.00,,,0.00,Wunderground v.1.15,2013-10-15 08:45:00,
2013-10-15 04:55:00,47.2,45.3,30.26,NNW,341,1.0,2.0,93,0.00,,,0.00,Wunderground v.1.15,2013-10-15 08:55:00,
2013-10-15 05:00:00,47.0,45.1,30.27,NNW,344,2.0,2.0,93,0.00,,,0.00,Wunderground v.1.15,2013-10-15 09:00:00,
2013-10-15 05:10:00,46.7,44.8,30.27,North,349,2.0,2.0,93,0.00,,,0.00,Wunderground v.1.15,2013-10-15 09:10:00,
2013-10-15 05:15:00,46.6,44.7,30.27,North,349,2.0,2.0,93,0.00,,,0.00,Wunderground v.1.15,2013-10-15 09:15:00,
2013-10-15 05:20:00,46.6,44.7,30.27,North,349,1.0,1.0,93,0.00,,,0.00,Wunderground v.1.15,2013-10-15 09:20:00,
2013-10-15 05:25:00,46.4,44.5,30.28,North,349,1.0,2.0,93,0.00,,,0.00,Wunderground v.1.15,2013-10-15 09:25:00,
2013-10-15 05:30:00,46.4,44.5,30.28,NNW,342,2.0,2.0,93,0.00,,,0.00,Wunderground v.1.15,2013-10-15 09:30:00,
2013-10-15 05:35:00,46.4,44.2,30.28,NNW,342,2.0,2.0,92,0.00,,,0.00,Wunderground v.1.15,2013-10-15 09:35:00,
2013-10-15 05:40:00,46.2,44.0,30.28,NNW,342,1.0,1.0,92,0.00,,,0.00,Wunderground v.1.15,2013-10-15 09:40:00,
2013-10-15 05:45:00,45.9,43.7,30.28,North,355,0.0,2.0,92,0.00,,,0.00,Wunderground v.1.15,2013-10-15 09:45:00,
2013-10-15 05:50:00,45.8,43.6,30.27,North,355,1.0,1.0,92,0.00,,,0.00,Wunderground v.1.15,2013-10-15 09:50:00,
2013-10-15 05:55:00,45.7,43.5,30.28,NE,34,1.0,1.0,92,0.00,,,0.00,Wunderground v.1.15,2013-10-15 09:55:00,
2013-10-15 06:00:00,45.5,43.3,30.27,NNW,342,1.0,6.0,92,0.00,,,0.00,Wunderground v.1.15,2013-10-15 10:00:00,
2013-10-15 06:05:00,45.6,43.1,30.28,NNW,344,2.0,6.0,91,0.00,,,0.00,Wunderground v.1.15,2013-10-15 10:05:00,
2013-10-15 06:10:00,45.6,43.1,30.28,NNW,343,3.0,3.0,91,0.00,,,0.00,Wunderground v.1.15,2013-10-15 10:10:00,
2013-10-15 06:15:00,45.2,42.7,30.28,NNW,344,2.0,3.0,91,0.00,,,0.00,Wunderground v.1.15,2013-10-15 10:15:00,
2013-10-15 06:25:00,44.7,42.2,30.28,NNW,344,2.0,2.0,91,0.00,,,0.00,Wunderground v.1.15,2013-10-15 10:25:00,
2013-10-15 06:30:00,44.5,42.3,30.29,NNW,344,0.0,0.0,92,0.00,,,0.00,Wunderground v.1.15,2013-10-15 10:30:00,
2013-10-15 06:35:00,44.5,42.3,30.29,NNW,344,0.0,0.0,92,0.00,,,0.00,Wunderground v.1.15,2013-10-15 10:35:00,
2013-10-15 06:40:00,44.5,42.3,30.29,NNW,344,0.0,0.0,92,0.00,,,0.00,Wunderground v.1.15,2013-10-15 10:40:00,
2013-10-15 06:45:00,44.3,42.1,30.29,NNW,344,0.0,0.0,92,0.00,,,0.00,Wunderground v.1.15,2013-10-15 10:45:00,
2013-10-15 06:55:00,44.2,42.0,30.29,NNW,344,0.0,0.0,92,0.00,,,0.00,Wunderground v.1.15,2013-10-15 10:55:00,
2013-10-15 07:00:00,44.1,41.6,30.29,NNW,344,0.0,0.0,91,0.00,,,0.00,Wunderground v.1.15,2013-10-15 11:00:00,
2013-10-15 07:05:00,43.9,41.4,30.29,NNW,344,0.0,0.0,91,0.00,,,0.00,Wunderground v.1.15,2013-10-15 11:05:00,
2013-10-15 07:15:00,43.2,41.0,30.29,NNW,344,0.0,0.0,92,0.00,,,0.00,Wunderground v.1.15,2013-10-15 11:15:00,
2013-10-15 07:25:00,42.5,40.3,30.30,NNW,344,0.0,1.0,92,0.00,,,0.00,Wunderground v.1.15,2013-10-15 11:25:00,
2013-10-15 07:30:00,42.5,40.6,30.30,NNW,344,1.0,2.0,93,0.00,,,0.00,Wunderground v.1.15,2013-10-15 11:30:00,
2013-10-15 07:40:00,42.6,40.7,30.30,NNW,344,2.0,3.0,93,0.00,,,0.00,Wunderground v.1.15,2013-10-15 11:40:00,
2013-10-15 07:45:00,42.7,40.8,30.30,NNW,344,2.0,3.0,93,0.00,,,0.00,Wunderground v.1.15,2013-10-15 11:45:00,
2013-10-15 07:50:00,42.9,41.0,30.30,NNW,344,3.0,3.0,93,0.00,,,0.00,Wunderground v.1.15,2013-10-15 11:50:00,
2013-10-15 07:55:00,43.2,41.3,30.30,NNW,344,3.0,4.0,93,0.00,,,0.00,Wunderground v.1.15,2013-10-15 11:55:00,
2013-10-15 08:00:00,43.3,41.4,30.30,NNW,344,3.0,3.0,93,0.00,,,0.00,Wunderground v.1.15,2013-10-15 12:00:00,
2013-10-15 08:05:00,43.3,41.4,30.30,NNW,333,3.0,3.0,93,0.00,,,0.00,Wunderground v.1.15,2013-10-15 12:05:00,
2013-10-15 08:10:00,43.3,41.4,30.30,NNW,333,3.0,3.0,93,0.00,,,0.00,Wunderground v.1.15,2013-10-15 12:10:00,
2013-10-15 08:15:00,43.4,41.5,30.31,NNW,333,3.0,3.0,93,0.00,,,0.00,Wunderground v.1.15,2013-10-15 12:15:00,
2013-10-15 08:20:00,43.5,41.6,30.31,NNW,333,2.0,2.0,93,0.00,,,0.00,Wunderground v.1.15,2013-10-15 12:20:00,
2013-10-15 08:25:00,43.7,41.8,30.31,NNW,333,2.0,3.0,93,0.00,,,0.00,Wunderground v.1.15,2013-10-15 12:25:00,
2013-10-15 08:30:00,44.0,41.8,30.31,NNW,333,3.0,3.0,92,0.00,,,0.00,Wunderground v.1.15,2013-10-15 12:30:00,
2013-10-15 08:35:00,44.2,42.0,30.31,NNW,333,4.0,4.0,92,0.00,,,0.00,Wunderground v.1.15,2013-10-15 12:35:00,
2013-10-15 08:40:00,44.4,42.2,30.31,NNW,333,4.0,5.0,92,0.00,,,0.00,Wunderground v.1.15,2013-10-15 12:40:00,
2013-10-15 08:45:00,44.7,42.2,30.31,NNW,327,4.0,5.0,91,0.00,,,0.00,Wunderground v.1.15,2013-10-15 12:45:00,
2013-10-15 08:55:00,45.2,42.4,30.31,NNW,341,4.0,5.0,90,0.00,,,0.00,Wunderground v.1.15,2013-10-15 12:55:00,
2013-10-15 09:00:00,45.4,42.3,30.31,NNW,340,4.0,6.0,89,0.00,,,0.00,Wunderground v.1.15,2013-10-15 13:00:00,
2013-10-15 09:05:00,45.6,42.3,30.31,NNW,334,4.0,6.0,88,0.00,,,0.00,Wunderground v.1.15,2013-10-15 13:05:00,
2013-10-15 09:10:00,45.8,42.7,30.31,North,355,4.0,4.0,89,0.00,,,0.00,Wunderground v.1.15,2013-10-15 13:10:00,
2013-10-15 09:15:00,45.8,42.2,30.31,NNW,345,4.0,4.0,87,0.00,,,0.00,Wunderground v.1.15,2013-10-15 13:15:00,
2013-10-15 09:20:00,45.9,42.2,30.31,NNW,340,4.0,4.0,87,0.00,,,0.00,Wunderground v.1.15,2013-10-15 13:20:00,
2013-10-15 09:25:00,46.1,42.4,30.31,NNW,330,4.0,5.0,87,0.00,,,0.00,Wunderground v.1.15,2013-10-15 13:25:00,
2013-10-15 09:30:00,46.3,42.6,30.31,NW,318,4.0,4.0,87,0.00,,,0.00,Wunderground v.1.15,2013-10-15 13:30:00,
2013-10-15 09:35:00,46.6,42.6,30.31,NNW,342,4.0,4.0,86,0.00,,,0.00,Wunderground v.1.15,2013-10-15 13:35:00,
2013-10-15 09:40:00,46.9,42.6,30.31,NNW,336,3.0,3.0,85,0.00,,,0.00,Wunderground v.1.15,2013-10-15 13:40:00,
2013-10-15 09:45:00,47.0,42.4,30.31,NNW,336,1.0,3.0,84,0.00,,,0.00,Wunderground v.1.15,2013-10-15 13:45:00,
2013-10-15 09:50:00,47.3,42.4,30.31,NNW,348,0.0,0.0,83,0.00,,,0.00,Wunderground v.1.15,2013-10-15 13:50:00,
2013-10-15 09:55:00,47.5,42.6,30.31,NW,315,0.0,4.0,83,0.00,,,0.00,Wunderground v.1.15,2013-10-15 13:55:00,
2013-10-15 10:00:00,47.6,42.7,30.31,NW,314,1.0,1.0,83,0.00,,,0.00,Wunderground v.1.15,2013-10-15 14:00:00,
2013-10-15 10:10:00,48.1,43.2,30.31,NW,314,0.0,0.0,83,0.00,,,0.00,Wunderground v.1.15,2013-10-15 14:10:00,
2013-10-15 10:15:00,48.2,43.0,30.31,NW,315,0.0,0.0,82,0.00,,,0.00,Wunderground v.1.15,2013-10-15 14:15:00,
2013-10-15 10:20:00,48.3,43.1,30.31,NW,314,0.0,0.0,82,0.00,,,0.00,Wunderground v.1.15,2013-10-15 14:20:00,
2013-10-15 10:25:00,48.6,43.4,30.30,NW,315,0.0,0.0,82,0.00,,,0.00,Wunderground v.1.15,2013-10-15 14:25:00,
2013-10-15 10:30:00,49.0,44.1,30.30,NNW,333,0.0,0.0,83,0.00,,,0.00,Wunderground v.1.15,2013-10-15 14:30:00,
2013-10-15 10:35:00,49.5,43.9,30.31,NNW,333,0.0,0.0,81,0.00,,,0.00,Wunderground v.1.15,2013-10-15 14:35:00,
2013-10-15 10:40:00,49.9,43.6,30.31,NNE,17,0.0,1.0,79,0.00,,,0.00,Wunderground v.1.15,2013-10-15 14:40:00,
2013-10-15 10:45:00,50.1,43.5,30.31,North,9,1.0,3.0,78,0.00,,,0.00,Wunderground v.1.15,2013-10-15 14:45:00,
2013-10-15 10:50:00,50.1,43.5,30.31,North,5,1.0,1.0,78,0.00,,,0.00,Wunderground v.1.15,2013-10-15 14:50:00,
2013-10-15 10:55:00,50.3,43.4,30.31,North,5,1.0,1.0,77,0.00,,,0.00,Wunderground v.1.15,2013-10-15 14:55:00,
2013-10-15 11:00:00,50.5,43.6,30.30,North,360,0.0,0.0,77,0.00,,,0.00,Wunderground v.1.15,2013-10-15 15:00:00,
2013-10-15 11:05:00,50.9,43.3,30.30,North,360,0.0,0.0,75,0.00,,,0.00,Wunderground v.1.15,2013-10-15 15:05:00,
2013-10-15 11:10:00,51.4,43.7,30.30,North,5,0.0,0.0,75,0.00,,,0.00,Wunderground v.1.15,2013-10-15 15:10:00,
2013-10-15 11:15:00,51.5,41.7,30.30,North,5,0.0,0.0,69,0.00,,,0.00,Wunderground v.1.15,2013-10-15 15:15:00,
2013-10-15 11:25:00,51.8,40.8,30.30,NNE,23,1.0,2.0,66,0.00,,,0.00,Wunderground v.1.15,2013-10-15 15:25:00,
2013-10-15 11:30:00,52.0,39.8,30.30,ENE,58,1.0,1.0,63,0.00,,,0.00,Wunderground v.1.15,2013-10-15 15:30:00,
2013-10-15 11:35:00,52.1,39.5,30.30,NNE,22,1.0,3.0,62,0.00,,,0.00,Wunderground v.1.15,2013-10-15 15:35:00,
2013-10-15 11:40:00,52.2,38.7,30.29,North,355,2.0,2.0,60,0.00,,,0.00,Wunderground v.1.15,2013-10-15 15:40:00,
2013-10-15 11:45:00,52.4,39.3,30.29,North,351,2.0,2.0,61,0.00,,,0.00,Wunderground v.1.15,2013-10-15 15:45:00,
2013-10-15 11:55:00,52.6,39.5,30.29,WNW,300,3.0,5.0,61,0.00,,,0.00,Wunderground v.1.15,2013-10-15 15:55:00,
2013-10-15 12:00:00,52.6,39.1,30.28,NW,318,2.0,2.0,60,0.00,,,0.00,Wunderground v.1.15,2013-10-15 16:00:00,
2013-10-15 12:05:00,52.6,39.5,30.28,NW,318,1.0,2.0,61,0.00,,,0.00,Wunderground v.1.15,2013-10-15 16:05:00,
2013-10-15 12:15:00,52.7,39.2,30.28,NW,312,1.0,1.0,60,0.00,,,0.00,Wunderground v.1.15,2013-10-15 16:15:00,
2013-10-15 12:20:00,52.9,39.0,30.28,WNW,294,1.0,1.0,59,0.00,,,0.00,Wunderground v.1.15,2013-10-15 16:20:00,
2013-10-15 12:25:00,53.2,39.7,30.27,WNW,294,0.0,2.0,60,0.00,,,0.00,Wunderground v.1.15,2013-10-15 16:25:00,
2013-10-15 12:30:00,53.5,39.9,30.27,NNE,13,1.0,4.0,60,0.00,,,0.00,Wunderground v.1.15,2013-10-15 16:30:00,
2013-10-15 12:35:00,53.6,39.2,30.27,NNE,13,2.0,4.0,58,0.00,,,0.00,Wunderground v.1.15,2013-10-15 16:35:00,
2013-10-15 12:40:00,53.6,38.7,30.27,WNW,296,2.0,2.0,57,0.00,,,0.00,Wunderground v.1.15,2013-10-15 16:40:00,
2013-10-15 12:45:00,53.7,38.4,30.27,WNW,300,2.0,2.0,56,0.00,,,0.00,Wunderground v.1.15,2013-10-15 16:45:00,
2013-10-15 12:50:00,53.7,38.4,30.27,WNW,300,1.0,1.0,56,0.00,,,0.00,Wunderground v.1.15,2013-10-15 16:50:00,
2013-10-15 12:55:00,53.8,38.5,30.27,NNE,32,1.0,1.0,56,0.00,,,0.00,Wunderground v.1.15,2013-10-15 16:55:00,
2013-10-15 13:00:00,54.0,39.5,30.27,WNW,292,0.0,0.0,58,0.00,,,0.00,Wunderground v.1.15,2013-10-15 17:00:00,
2013-10-15 13:10:00,53.9,39.0,30.26,NW,322,2.0,2.0,57,0.00,,,0.00,Wunderground v.1.15,2013-10-15 17:10:00,
2013-10-15 13:15:00,54.1,39.2,30.26,NW,323,0.0,2.0,57,0.00,,,0.00,Wunderground v.1.15,2013-10-15 17:15:00,
2013-10-15 13:25:00,54.6,40.1,30.26,NNE,27,1.0,1.0,58,0.00,,,0.00,Wunderground v.1.15,2013-10-15 17:25:00,
2013-10-15 13:30:00,54.7,41.1,30.25,North,10,2.0,2.0,60,0.00,,,0.00,Wunderground v.1.15,2013-10-15 17:30:00,
2013-10-15 13:35:00,54.7,39.8,30.25,NNE,14,2.0,2.0,57,0.00,,,0.00,Wunderground v.1.15,2013-10-15 17:35:00,
2013-10-15 13:40:00,54.8,39.4,30.25,NNE,15,2.0,2.0,56,0.00,,,0.00,Wunderground v.1.15,2013-10-15 17:40:00,
2013-10-15 13:45:00,55.2,40.2,30.25,NE,53,1.0,2.0,57,0.00,,,0.00,Wunderground v.1.15,2013-10-15 17:45:00,
2013-10-15 13:50:00,55.1,39.2,30.25,NE,53,0.0,0.0,55,0.00,,,0.00,Wunderground v.1.15,2013-10-15 17:50:00,
2013-10-15 13:55:00,55.1,41.9,30.25,NE,53,0.0,0.0,61,0.00,,,0.00,Wunderground v.1.15,2013-10-15 17:55:00,
2013-10-15 14:00:00,55.5,40.5,30.24,NNE,31,0.0,0.0,57,0.00,,,0.00,Wunderground v.1.15,2013-10-15 18:00:00,
2013-10-15 14:05:00,55.6,40.6,30.24,North,360,1.0,4.0,57,0.00,,,0.00,Wunderground v.1.15,2013-10-15 18:05:00,
2013-10-15 14:10:00,55.5,39.1,30.24,ENE,73,1.0,3.0,54,0.00,,,0.00,Wunderground v.1.15,2013-10-15 18:10:00,
2013-10-15 14:15:00,55.5,39.1,30.24,ENE,70,0.0,3.0,54,0.00,,,0.00,Wunderground v.1.15,2013-10-15 18:15:00,
2013-10-15 14:20:00,55.3,39.9,30.23,ESE,113,1.0,1.0,56,0.00,,,0.00,Wunderground v.1.15,2013-10-15 18:20:00,
2013-10-15 14:25:00,55.7,39.3,30.23,NNE,14,1.0,3.0,54,0.00,,,0.00,Wunderground v.1.15,2013-10-15 18:25:00,
2013-10-15 14:30:00,55.8,39.9,30.23,NE,42,1.0,1.0,55,0.00,,,0.00,Wunderground v.1.15,2013-10-15 18:30:00,
2013-10-15 14:40:00,56.2,38.8,30.23,NE,40,0.0,0.0,52,0.00,,,0.00,Wunderground v.1.15,2013-10-15 18:40:00,
2013-10-15 14:45:00,56.4,38.5,30.24,NNE,19,0.0,0.0,51,0.00,,,0.00,Wunderground v.1.15,2013-10-15 18:45:00,
2013-10-15 14:50:00,56.4,38.0,30.24,NNE,19,0.0,0.0,50,0.00,,,0.00,Wunderground v.1.15,2013-10-15 18:50:00,
2013-10-15 14:55:00,56.6,38.7,30.23,NNE,19,0.0,0.0,51,0.00,,,0.00,Wunderground v.1.15,2013-10-15 18:55:00,
2013-10-15 15:00:00,56.9,38.4,30.23,NNE,16,0.0,0.0,50,0.00,,,0.00,Wunderground v.1.15,2013-10-15 19:00:00,
2013-10-15 15:05:00,56.5,38.1,30.23,NNE,16,0.0,0.0,50,0.00,,,0.00,Wunderground v.1.15,2013-10-15 19:05:00,
2013-10-15 15:10:00,56.5,38.1,30.24,NNE,16,0.0,0.0,50,0.00,,,0.00,Wunderground v.1.15,2013-10-15 19:10:00,
2013-10-15 15:15:00,56.3,38.4,30.24,NNE,16,0.0,0.0,51,0.00,,,0.00,Wunderground v.1.15,2013-10-15 19:15:00,
2013-10-15 15:20:00,56.4,39.5,30.24,NNE,15,0.0,0.0,53,0.00,,,0.00,Wunderground v.1.15,2013-10-15 19:20:00,
2013-10-15 15:25:00,56.5,40.0,30.24,NNE,16,0.0,0.0,54,0.00,,,0.00,Wunderground v.1.15,2013-10-15 19:25:00,
2013-10-15 15:30:00,56.4,37.5,30.24,NNE,15,0.0,0.0,49,0.00,,,0.00,Wunderground v.1.15,2013-10-15 19:30:00,
2013-10-15 15:35:00,56.3,37.9,30.24,NNE,15,0.0,0.0,50,0.00,,,0.00,Wunderground v.1.15,2013-10-15 19:35:00,
2013-10-15 15:40:00,56.6,39.2,30.24,NNE,16,0.0,0.0,52,0.00,,,0.00,Wunderground v.1.15,2013-10-15 19:40:00,
2013-10-15 15:45:00,56.9,38.9,30.23,NNE,15,0.0,0.0,51,0.00,,,0.00,Wunderground v.1.15,2013-10-15 19:45:00,
2013-10-15 15:50:00,57.1,38.1,30.23,NNE,15,0.0,0.0,49,0.00,,,0.00,Wunderground v.1.15,2013-10-15 19:50:00,
2013-10-15 15:55:00,57.2,37.7,30.23,WNW,292,1.0,1.0,48,0.00,,,0.00,Wunderground v.1.15,2013-10-15 19:55:00,
2013-10-15 16:00:00,57.2,39.7,30.23,WSW,244,1.0,1.0,52,0.00,,,0.00,Wunderground v.1.15,2013-10-15 20:00:00,
2013-10-15 16:05:00,57.1,41.1,30.23,WSW,244,0.0,1.0,55,0.00,,,0.00,Wunderground v.1.15,2013-10-15 20:05:00,
2013-10-15 16:10:00,57.0,40.0,30.23,WSW,244,0.0,0.0,53,0.00,,,0.00,Wunderground v.1.15,2013-10-15 20:10:00,
2013-10-15 16:15:00,57.0,40.5,30.23,WSW,244,0.0,0.0,54,0.00,,,0.00,Wunderground v.1.15,2013-10-15 20:15:00,
2013-10-15 16:25:00,56.4,39.5,30.22,WSW,244,0.0,0.0,53,0.00,,,0.00,Wunderground v.1.15,2013-10-15 20:25:00,
2013-10-15 16:30:00,56.3,40.8,30.22,WSW,244,0.0,0.0,56,0.00,,,0.00,Wunderground v.1.15,2013-10-15 20:30:00,
2013-10-15 16:35:00,56.3,40.8,30.22,WSW,244,0.0,0.0,56,0.00,,,0.00,Wunderground v.1.15,2013-10-15 20:35:00,
2013-10-15 16:40:00,56.1,41.1,30.22,WSW,244,0.0,0.0,57,0.00,,,0.00,Wunderground v.1.15,2013-10-15 20:40:00,
2013-10-15 16:45:00,55.8,41.2,30.22,WSW,244,0.0,0.0,58,0.00,,,0.00,Wunderground v.1.15,2013-10-15 20:45:00,
2013-10-15 16:50:00,55.7,40.2,30.22,WSW,244,0.0,0.0,56,0.00,,,0.00,Wunderground v.1.15,2013-10-15 20:50:00,
2013-10-15 16:55:00,55.5,40.0,30.22,WSW,244,0.0,0.0,56,0.00,,,0.00,Wunderground v.1.15,2013-10-15 20:55:00,
2013-10-15 17:00:00,55.1,40.1,30.22,WSW,244,0.0,0.0,57,0.00,,,0.00,Wunderground v.1.15,2013-10-15 21:00:00,
2013-10-15 17:10:00,53.9,40.8,30.22,WSW,244,0.0,0.0,61,0.00,,,0.00,Wunderground v.1.15,2013-10-15 21:10:00,
2013-10-15 17:15:00,53.1,40.4,30.22,WSW,244,0.0,0.0,62,0.00,,,0.00,Wunderground v.1.15,2013-10-15 21:15:00,
2013-10-15 17:20:00,52.5,40.7,30.22,WSW,244,0.0,0.0,64,0.00,,,0.00,Wunderground v.1.15,2013-10-15 21:20:00,
2013-10-15 17:25:00,51.8,40.4,30.22,WSW,244,0.0,0.0,65,0.00,,,0.00,Wunderground v.1.15,2013-10-15 21:25:00,
2013-10-15 17:30:00,51.2,40.2,30.22,WSW,244,0.0,0.0,66,0.00,,,0.00,Wunderground v.1.15,2013-10-15 21:30:00,
2013-10-15 17:35:00,50.8,39.5,30.22,WSW,244,0.0,0.0,65,0.00,,,0.00,Wunderground v.1.15,2013-10-15 21:35:00,
2013-10-15 17:40:00,50.4,39.5,30.22,WSW,244,0.0,0.0,66,0.00,,,0.00,Wunderground v.1.15,2013-10-15 21:40:00,
2013-10-15 17:45:00,50.1,39.2,30.22,WSW,244,0.0,0.0,66,0.00,,,0.00,Wunderground v.1.15,2013-10-15 21:45:00,
2013-10-15 17:55:00,49.2,38.7,30.22,WSW,244,0.0,0.0,67,0.00,,,0.00,Wunderground v.1.15,2013-10-15 21:55:00,
2013-10-15 18:00:00,48.7,39.0,30.22,WSW,244,0.0,0.0,69,0.00,,,0.00,Wunderground v.1.15,2013-10-15 22:00:00,
2013-10-15 18:05:00,48.4,38.7,30.22,WSW,244,0.0,0.0,69,0.00,,,0.00,Wunderground v.1.15,2013-10-15 22:05:00,
2013-10-15 18:10:00,48.1,38.8,30.22,WSW,244,0.0,0.0,70,0.00,,,0.00,Wunderground v.1.15,2013-10-15 22:10:00,
2013-10-15 18:15:00,47.7,38.4,30.23,WSW,244,0.0,0.0,70,0.00,,,0.00,Wunderground v.1.15,2013-10-15 22:15:00,
2013-10-15 18:20:00,47.5,38.6,30.22,WSW,244,0.0,0.0,71,0.00,,,0.00,Wunderground v.1.15,2013-10-15 22:20:00,
2013-10-15 18:25:00,47.2,38.3,30.23,WSW,244,0.0,0.0,71,0.00,,,0.00,Wunderground v.1.15,2013-10-15 22:25:00,
2013-10-15 18:30:00,46.9,38.3,30.23,WSW,244,0.0,0.0,72,0.00,,,0.00,Wunderground v.1.15,2013-10-15 22:30:00,
2013-10-15 18:40:00,46.3,38.5,30.22,WSW,244,0.0,0.0,74,0.00,,,0.00,Wunderground v.1.15,2013-10-15 22:40:00,
2013-10-15 18:45:00,46.1,38.3,30.22,WSW,244,0.0,0.0,74,0.00,,,0.00,Wunderground v.1.15,2013-10-15 22:45:00,
2013-10-15 18:50:00,46.1,38.6,30.23,WSW,244,0.0,0.0,75,0.00,,,0.00,Wunderground v.1.15,2013-10-15 22:50:00,
2013-10-15 18:55:00,46.0,38.5,30.23,WSW,244,0.0,0.0,75,0.00,,,0.00,Wunderground v.1.15,2013-10-15 22:55:00,
2013-10-15 19:00:00,46.1,38.6,30.23,WSW,244,0.0,0.0,75,0.00,,,0.00,Wunderground v.1.15,2013-10-15 23:00:00,
2013-10-15 19:10:00,46.3,39.1,30.23,WSW,244,0.0,0.0,76,0.00,,,0.00,Wunderground v.1.15,2013-10-15 23:10:00,
2013-10-15 19:15:00,46.0,39.5,30.23,WSW,244,0.0,0.0,78,0.00,,,0.00,Wunderground v.1.15,2013-10-15 23:15:00,
2013-10-15 19:20:00,46.0,39.5,30.23,WSW,244,0.0,0.0,78,0.00,,,0.00,Wunderground v.1.15,2013-10-15 23:20:00,
2013-10-15 19:25:00,45.9,39.4,30.23,WSW,244,0.0,0.0,78,0.00,,,0.00,Wunderground v.1.15,2013-10-15 23:25:00,
2013-10-15 19:30:00,45.5,39.0,30.23,WSW,244,0.0,0.0,78,0.00,,,0.00,Wunderground v.1.15,2013-10-15 23:30:00,
2013-10-15 19:35:00,45.4,39.3,30.23,WSW,244,0.0,0.0,79,0.00,,,0.00,Wunderground v.1.15,2013-10-15 23:35:00,
2013-10-15 19:40:00,45.3,39.8,30.23,WSW,244,0.0,0.0,81,0.00,,,0.00,Wunderground v.1.15,2013-10-15 23:40:00,
2013-10-15 19:45:00,45.2,40.0,30.23,WSW,244,0.0,0.0,82,0.00,,,0.00,Wunderground v.1.15,2013-10-15 23:45:00,
2013-10-15 19:55:00,45.1,39.9,30.23,WSW,244,0.0,0.0,82,0.00,,,0.00,Wunderground v.1.15,2013-10-15 23:55:00,
2013-10-15 20:00:00,45.0,40.1,30.23,WSW,244,0.0,0.0,83,0.00,,,0.00,Wunderground v.1.15,2013-10-16 00:00:00,
2013-10-15 20:05:00,44.9,40.0,30.23,WSW,244,0.0,0.0,83,0.00,,,0.00,Wunderground v.1.15,2013-10-16 00:05:00,
2013-10-15 20:10:00,44.6,39.8,30.23,WSW,244,0.0,0.0,83,0.00,,,0.00,Wunderground v.1.15,2013-10-16 00:10:00,
2013-10-15 20:15:00,44.4,39.2,30.24,WSW,244,0.0,0.0,82,0.00,,,0.00,Wunderground v.1.15,2013-10-16 00:15:00,
2013-10-15 20:20:00,44.3,39.2,30.24,WSW,244,0.0,0.0,82,0.00,,,0.00,Wunderground v.1.15,2013-10-16 00:20:00,
2013-10-15 20:25:00,44.2,39.1,30.24,WSW,244,0.0,0.0,82,0.00,,,0.00,Wunderground v.1.15,2013-10-16 00:25:00,
2013-10-15 20:30:00,44.0,39.2,30.24,WSW,244,0.0,0.0,83,0.00,,,0.00,Wunderground v.1.15,2013-10-16 00:30:00,
2013-10-15 20:40:00,43.9,39.4,30.24,WSW,244,0.0,0.0,84,0.00,,,0.00,Wunderground v.1.15,2013-10-16 00:40:00,
2013-10-15 20:45:00,43.8,39.0,30.23,WSW,244,0.0,0.0,83,0.00,,,0.00,Wunderground v.1.15,2013-10-16 00:45:00,
2013-10-15 20:50:00,43.8,39.0,30.24,WSW,244,0.0,0.0,83,0.00,,,0.00,Wunderground v.1.15,2013-10-16 00:50:00,
2013-10-15 20:55:00,43.7,38.3,30.23,WSW,244,0.0,0.0,81,0.00,,,0.00,Wunderground v.1.15,2013-10-16 00:55:00,
2013-10-15 21:00:00,43.6,38.5,30.23,WSW,244,0.0,0.0,82,0.00,,,0.00,Wunderground v.1.15,2013-10-16 01:00:00,
2013-10-15 21:05:00,43.5,38.4,30.23,WSW,244,0.0,0.0,82,0.00,,,0.00,Wunderground v.1.15,2013-10-16 01:05:00,
2013-10-15 21:10:00,43.4,38.3,30.23,WSW,244,0.0,0.0,82,0.00,,,0.00,Wunderground v.1.15,2013-10-16 01:10:00,
2013-10-15 21:15:00,43.3,38.2,30.23,WSW,244,0.0,0.0,82,0.00,,,0.00,Wunderground v.1.15,2013-10-16 01:15:00,
2013-10-15 21:20:00,43.2,38.7,30.23,WSW,244,0.0,0.0,84,0.00,,,0.00,Wunderground v.1.15,2013-10-16 01:20:00,
2013-10-15 21:25:00,43.1,38.9,30.23,WSW,244,0.0,0.0,85,0.00,,,0.00,Wunderground v.1.15,2013-10-16 01:25:00,
2013-10-15 21:30:00,42.6,38.4,30.23,WSW,244,0.0,0.0,85,0.00,,,0.00,Wunderground v.1.15,2013-10-16 01:30:00,
2013-10-15 21:35:00,42.5,38.6,30.23,WSW,244,0.0,0.0,86,0.00,,,0.00,Wunderground v.1.15,2013-10-16 01:35:00,
2013-10-15 21:40:00,42.4,39.1,30.23,WSW,244,0.0,0.0,88,0.00,,,0.00,Wunderground v.1.15,2013-10-16 01:40:00,
2013-10-15 21:45:00,42.2,38.9,30.24,WSW,244,0.0,0.0,88,0.00,,,0.00,Wunderground v.1.15,2013-10-16 01:45:00,
2013-10-15 21:55:00,41.9,38.6,30.24,WSW,244,0.0,0.0,88,0.00,,,0.00,Wunderground v.1.15,2013-10-16 01:55:00,
2013-10-15 22:00:00,41.5,38.2,30.24,WSW,244,0.0,0.0,88,0.00,,,0.00,Wunderground v.1.15,2013-10-16 02:00:00,
2013-10-15 22:05:00,41.3,38.0,30.24,WSW,244,0.0,0.0,88,0.00,,,0.00,Wunderground v.1.15,2013-10-16 02:05:00,
2013-10-15 22:10:00,41.2,37.9,30.24,WSW,244,0.0,0.0,88,0.00,,,0.00,Wunderground v.1.15,2013-10-16 02:10:00,
2013-10-15 22:15:00,41.1,37.8,30.24,WSW,244,0.0,0.0,88,0.00,,,0.00,Wunderground v.1.15,2013-10-16 02:15:00,
2013-10-15 22:20:00,41.0,37.7,30.24,WSW,244,0.0,0.0,88,0.00,,,0.00,Wunderground v.1.15,2013-10-16 02:20:00,
2013-10-15 22:25:00,40.9,37.6,30.24,WSW,244,0.0,0.0,88,0.00,,,0.00,Wunderground v.1.15,2013-10-16 02:25:00,
2013-10-15 22:30:00,40.7,37.7,30.23,WSW,244,0.0,0.0,89,0.00,,,0.00,Wunderground v.1.15,2013-10-16 02:30:00,
2013-10-15 22:35:00,40.7,37.7,30.23,WSW,244,0.0,0.0,89,0.00,,,0.00,Wunderground v.1.15,2013-10-16 02:35:00,
2013-10-15 22:40:00,40.7,37.7,30.23,WSW,244,0.0,0.0,89,0.00,,,0.00,Wunderground v.1.15,2013-10-16 02:40:00,
2013-10-15 22:45:00,40.7,37.7,30.23,WSW,244,0.0,0.0,89,0.00,,,0.00,Wunderground v.1.15,2013-10-16 02:45:00,
2013-10-15 22:50:00,40.7,37.7,30.22,WSW,244,0.0,0.0,89,0.00,,,0.00,Wunderground v.1.15,2013-10-16 02:50:00,
2013-10-15 22:55:00,40.8,37.5,30.23,WSW,244,0.0,0.0,88,0.00,,,0.00,Wunderground v.1.15,2013-10-16 02:55:00,
2013-10-15 23:00:00,40.9,37.6,30.22,WSW,244,0.0,0.0,88,0.00,,,0.00,Wunderground v.1.15,2013-10-16 03:00:00,
2013-10-15 23:05:00,40.9,37.6,30.22,WSW,244,0.0,0.0,88,0.00,,,0.00,Wunderground v.1.15,2013-10-16 03:05:00,
2013-10-15 23:10:00,40.9,37.6,30.22,WSW,244,0.0,0.0,88,0.00,,,0.00,Wunderground v.1.15,2013-10-16 03:10:00,
2013-10-15 23:15:00,40.8,37.2,30.22,WSW,244,0.0,0.0,87,0.00,,,0.00,Wunderground v.1.15,2013-10-16 03:15:00,
2013-10-15 23:20:00,40.8,37.2,30.21,WSW,244,0.0,0.0,87,0.00,,,0.00,Wunderground v.1.15,2013-10-16 03:20:00,
2013-10-15 23:25:00,40.7,37.1,30.22,WSW,244,0.0,0.0,87,0.00,,,0.00,Wunderground v.1.15,2013-10-16 03:25:00,
2013-10-15 23:30:00,40.7,37.1,30.22,WSW,244,0.0,0.0,87,0.00,,,0.00,Wunderground v.1.15,2013-10-16 03:30:00,
2013-10-15 23:35:00,40.6,37.0,30.22,WSW,244,0.0,0.0,87,0.00,,,0.00,Wunderground v.1.15,2013-10-16 03:35:00,
2013-10-15 23:40:00,40.6,37.3,30.22,WSW,244,0.0,0.0,88,0.00,,,0.00,Wunderground v.1.15,2013-10-16 03:40:00,
2013-10-15 23:45:00,40.5,37.2,30.22,WSW,244,0.0,0.0,88,0.00,,,0.00,Wunderground v.1.15,2013-10-16 03:45:00,
2013-10-15 23:50:00,40.4,36.8,30.21,WSW,244,0.0,0.0,87,0.00,,,0.00,Wunderground v.1.15,2013-10-16 03:50:00,
2013-10-15 23:55:00,40.2,36.6,30.21,WSW,244,0.0,0.0,87,0.00,,,0.00,Wunderground v.1.15,2013-10-16 03:55:00,